Location: Kapla
(46.2483°N, 15.0094°E)
Time: 18:33:39
(UTC+00:00)

Cosmos 2322 - Pass Details

Date: 03 March 2021
Orbit: 842 x 853 km, 71.0° (Epoch: 14 April)

Event Time Altitude Azimuth Distance (km) Brightness Sun altitude
Rises 18:00:41 0° 176° (S) 3,407 6.8 -13.2°
Reaches altitude 10° 18:03:20 10° 167° (SSE) 2,476 6.0 -13.6°
Maximum altitude 18:08:21 33° 105° (ESE) 1,394 4.3 -14.5°
Drops below altitude 10° 18:13:24 10° 43° (NE) 2,490 5.8 -15.3°
Sets 18:16:04 0° 34° (NE) 3,429 6.6 -15.8°
